Waarnemingen

Advertentie
Mijn weer
Jarnasklubb, Zweden (2284): temperatuur & dauwpunt: 18.07.2019 00:00:00 - 24.07.2019 00:00:00 (CEST)Jarnasklubb, Zweden (2284): windsnelheid & windstoten: 18.07.2019 00:00:00 - 24.07.2019 00:00:00 (CEST)Jarnasklubb, Zweden (2284): windrichting: 18.07.2019 00:00:00 - 24.07.2019 00:00:00 (CEST)Jarnasklubb, Zweden (2284): luchtdruk: 18.07.2019 00:00:00 - 24.07.2019 00:00:00 (CEST)Jarnasklubb, Zweden (2284): zicht: 18.07.2019 00:00:00 - 24.07.2019 00:00:00 (CEST)Jarnasklubb, Zweden (2284): neerslag: 18.07.2019 00:00:00 - 24.07.2019 00:00:00 (CEST)
Datum & Tijd tt [°C] td [°C] ff [km/u] ff [kn] fx [km/u] fx [kn] dd ppp [hPa] vv [km] rr [mm]
24.07.2019 00:00:00 15,0 14,8 7 4 15 8 WZW 1017,2 0,5 0,0
23.07.2019 23:00:00 15,4 15,1 9 5 14 7 ZZW 1016,9 0,4 0,0
23.07.2019 22:00:00 15,6 15,3 6 3 11 6 Z 1016,8 0,3 0,0
23.07.2019 21:00:00 15,7 15,2 5 3 9 5 ZZO 1016,6 0,4 0,0
23.07.2019 20:00:00 15,9 15,3 3 2 9 5 WZW 1016,5 0,7 0,0
23.07.2019 19:00:00 16,4 15,4 5 3 10 6 ZW 1016,3 1,5 0,0
23.07.2019 18:00:00 16,5 15,4 8 4 14 7 Z 1016,1 1,6 0,0
23.07.2019 17:00:00 16,9 15,4 8 4 11 6 Z 1016,2 6 0,0
23.07.2019 16:00:00 17,2 15,5 7 4 10 5 ZO 1015,8 3,4 0,0
23.07.2019 15:00:00 16,4 15,3 6 3 12 7 Z 1015,9 2,6 0,0
23.07.2019 14:00:00 16,7 15,2 9 5 14 8 ZO 1016,1 6 0,0
23.07.2019 13:00:00 17,0 15,3 11 6 21 11 ZZO 1016,0 11 0,0
23.07.2019 12:00:00 17,2 15,5 19 10 26 14 Z 1015,8 19 0,0
23.07.2019 11:00:00 16,8 15,5 22 12 33 18 Z 1015,3 13 0,0
23.07.2019 10:00:00 17,4 15,7 25 14 33 18 Z 1015,0 24 0,0
23.07.2019 09:00:00 17,4 15,7 24 13 30 16 ZZO 1014,6 20 0,0
23.07.2019 08:00:00 17,5 15,8 25 13 35 19 ZZO 1014,2 20 0,0
23.07.2019 07:00:00 17,1 15,8 28 15 34 19 ZO 1013,8 16 0,0
23.07.2019 06:00:00 17,4 15,4 24 13 31 17 ZO 1013,9 29 0,0
23.07.2019 05:00:00 17,2 14,8 25 14 33 18 ZZO 1013,9 26 0,0
23.07.2019 04:00:00 17,4 15,4 20 11 25 14 ZZO 1013,8 33 0,0
23.07.2019 03:00:00 17,3 15,8 9 5 13 7 ZZO 1013,8 44 0,0
23.07.2019 02:00:00 17,6 15,4 13 7 17 9 Z 1013,8 50 0,0
23.07.2019 01:00:00 17,8 16,0 10 6 17 9 ZZW 1013,9 44 0,0
23.07.2019 00:00:00 18,2 16,2 14 8 30 16 ZZW 1013,5 44 0,0
22.07.2019 23:00:00 18,7 16,3 16 9 22 12 Z 1013,2 38 0,0
22.07.2019 22:00:00 20,4 15,4 9 5 16 9 O 1012,7 50 0,0
22.07.2019 21:00:00 20,0 15,8 4 2 20 11 ONO 1012,7 50 0,0
22.07.2019 20:00:00 21,3 15,2 7 4 22 12 ONO 1012,5 50 0,0
22.07.2019 19:00:00 21,6 15,4 13 7 22 12 ONO 1012,5 50 0,0
22.07.2019 18:00:00 22,5 15,1 14 7 19 10 O 1012,8 50 0,0
22.07.2019 17:00:00 24,0 15,0 10 5 18 10 O 1012,9 45 0,0
22.07.2019 16:00:00 23,6 14,3 14 7 18 10 O 1013,2 46 0,0
22.07.2019 15:00:00 22,4 15,5 12 6 19 11 O 1013,6 45 0,0
22.07.2019 14:00:00 22,5 14,6 16 8 21 11 O 1014,1 46 0,0
22.07.2019 13:00:00 23,5 12,5 13 7 18 10 O 1014,3 45 0,0
22.07.2019 12:00:00 22,4 14,8 12 7 17 9 O 1014,2 50 0,0
22.07.2019 11:00:00 21,6 15,0 13 7 17 9 O 1014,3 50 0,0
22.07.2019 10:00:00 20,4 15,4 12 6 16 9 O 1014,3 45 0,0
22.07.2019 09:00:00 19,8 15,2 8 4 16 9 O 1014,3 44 0,0
22.07.2019 08:00:00 19,0 15,3 8 5 14 7 ONO 1014,3 43 0,0
22.07.2019 07:00:00 18,9 15,8 8 4 13 7 ONO 1014,3 49 0,0
22.07.2019 06:00:00 15,5 14,4 4 2 8 5 NNO 1014,5 39 0,0
22.07.2019 05:00:00 13,5 13,0 6 3 9 5 N 1014,6 19 0,0
22.07.2019 04:00:00 12,7 12,2 6 4 10 5 NNO 1014,7 12 0,0
22.07.2019 03:00:00 13,1 12,6 7 4 9 5 N 1014,7 10 0,0
22.07.2019 02:00:00 13,4 12,9 6 3 7 4 NNO 1014,9 11 0,0
22.07.2019 01:00:00 14,0 13,5 5 3 9 5 NNO 1015,0 14 0,0
22.07.2019 00:00:00 14,7 14,1 6 3 10 5 NNW 1015,1 22 0,0
21.07.2019 23:00:00 15,8 14,7 6 3 8 4 O 1014,7 35 0,0
21.07.2019 22:00:00 17,8 15,6 5 3 11 6 OZO 1014,8 50 0,0
21.07.2019 21:00:00 18,1 15,9 9 5 13 7 O 1014,8 50 0,0
21.07.2019 20:00:00 18,5 15,2 10 5 13 7 O 1014,7 50 0,0
21.07.2019 19:00:00 18,9 14,6 6 3 10 5 OZO 1014,8 50 0,0
21.07.2019 18:00:00 19,2 14,5 6 3 9 5 Z 1015,3 50 0,0
21.07.2019 17:00:00 19,4 14,6 6 3 10 5 Z 1015,5 49 0,0
21.07.2019 16:00:00 19,7 14,9 6 4 10 6 ZZO 1015,7 38 0,0
21.07.2019 15:00:00 20,2 15,0 8 4 12 6 Z 1016,1 46 0,0
21.07.2019 14:00:00 19,7 15,1 9 5 11 6 Z 1016,2 44 0,0
21.07.2019 13:00:00 20,3 15,1 11 6 14 7 Z 1016,4 48 0,0
21.07.2019 12:00:00 19,8 15,2 10 6 13 7 ZZO 1016,4 44 0,0
21.07.2019 11:00:00 19,9 14,9 10 5 13 7 Z 1016,3 45 0,0
21.07.2019 10:00:00 18,4 14,1 10 6 16 9 Z 1016,1 42 0,0
21.07.2019 09:00:00 18,9 14,2 12 6 16 8 ZZO 1016,0 50 0,0
21.07.2019 08:00:00 18,2 13,5 9 5 11 6 ZZO 1016,0 48 0,0
21.07.2019 07:00:00 17,7 13,0 5 3 8 4 ZZO 1015,9 50 0,0
21.07.2019 06:00:00 17,3 13,8 5 3 11 6 ZO 1015,9 50 0,0
21.07.2019 05:00:00 13,5 13,0 7 4 10 5 O 1015,7 29 0,0
21.07.2019 04:00:00 12,6 12,1 0 0 7 4 N 1015,9 13 0,0
21.07.2019 03:00:00 14,2 13,2 4 2 8 4 Z 1016,1 36 0,0
21.07.2019 02:00:00 14,0 13,4 3 2 7 4 ZZO 1016,2 23 0,0
21.07.2019 01:00:00 15,8 14,8 5 3 7 4 Z 1016,2 42 0,0
21.07.2019 00:00:00 15,2 14,4 4 2 6 3 Z 1016,2 43 0,0
20.07.2019 23:00:00 15,5 13,9 4 2 9 5 ZZW 1016,0 50 0,0
20.07.2019 22:00:00 16,3 14,1 6 3 10 5 ZW 1015,8 48 0,0
20.07.2019 21:00:00 16,8 14,3 7 4 14 8 ZZW 1015,5 50 0,0
20.07.2019 20:00:00 17,3 13,6 9 5 14 8 ZZW 1015,4 50 0,0
20.07.2019 19:00:00 18,2 13,3 11 6 17 9 ZW 1015,6 49 0,0
20.07.2019 18:00:00 18,7 13,1 11 6 16 8 ZZW 1015,6 50 0,0
20.07.2019 17:00:00 18,9 13,7 12 7 16 9 ZZW 1015,6 48 0,0
20.07.2019 16:00:00 19,1 13,5 14 7 18 10 Z 1015,8 47 0,0
20.07.2019 15:00:00 18,7 12,9 13 7 16 9 Z 1015,9 50 0,0
20.07.2019 14:00:00 18,6 12,4 13 7 17 9 Z 1016,1 48 0,0
20.07.2019 13:00:00 19,0 12,5 13 7 18 10 Z 1016,1 38 0,0
20.07.2019 12:00:00 18,4 11,7 13 7 16 9 Z 1016,1 44 0,0
20.07.2019 11:00:00 18,4 13,0 10 6 14 7 Z 1015,9 49 0,0
20.07.2019 10:00:00 18,3 13,2 9 5 11 6 ZZO 1015,7 44 0,0
20.07.2019 09:00:00 17,4 12,7 8 4 10 5 Z 1015,6 50 0,0
20.07.2019 08:00:00 17,1 13,6 8 4 12 7 ZZO 1015,3 48 0,0
20.07.2019 07:00:00 16,0 14,0 10 6 14 8 O 1014,9 38 0,0
20.07.2019 06:00:00 14,8 12,7 3 2 7 4 O 1014,7 50 0,0
20.07.2019 05:00:00 11,3 10,8 3 1 4 2 O 1014,7 21 0,0
20.07.2019 04:00:00 11,0 10,5 4 2 8 4 NO 1014,6 13 0,0
20.07.2019 03:00:00 10,8 10,3 6 3 7 4 N 1014,5 18 0,0
20.07.2019 02:00:00 11,0 10,4 3 2 5 3 NNW 1014,4 18 0,0
20.07.2019 01:00:00 11,2 10,6 3 1 6 4 NW 1014,3 25 0,0
20.07.2019 00:00:00 12,0 10,9 3 2 8 4 NO 1014,2 45 0,0
19.07.2019 23:00:00 12,6 11,5 2 1 5 3 O 1014,2 50 0,0
19.07.2019 22:00:00 14,3 12,2 3 2 5 3 O 1013,9 50 0,0
19.07.2019 21:00:00 15,8 12,5 0 0 7 4 N 1013,9 50 0,0
19.07.2019 20:00:00 16,3 12,5 8 4 10 5 OZO 1013,7 50 0,0
19.07.2019 19:00:00 17,0 12,9 5 3 9 5 ZO 1013,7 50 0,0
19.07.2019 18:00:00 17,0 12,7 9 5 10 5 OZO 1013,6 50 0,0
19.07.2019 17:00:00 17,5 12,2 7 4 9 5 ZO 1013,9 42 0,0
19.07.2019 16:00:00 17,4 11,7 7 4 11 6 ZO 1014,1 45 0,0
19.07.2019 15:00:00 17,6 11,8 8 5 11 6 ZO 1014,2 42 0,0
19.07.2019 14:00:00 17,3 10,9 10 6 14 7 OZO 1014,3 39 0,0
19.07.2019 13:00:00 17,7 10,8 11 6 14 8 OZO 1014,5 44 0,0
19.07.2019 12:00:00 17,1 10,5 12 6 16 9 OZO 1014,4 42 0,0
19.07.2019 11:00:00 17,4 10,8 9 5 12 7 OZO 1014,5 46 0,0
19.07.2019 10:00:00 16,9 9,8 8 4 10 5 OZO 1014,5 50 0,0
19.07.2019 09:00:00 15,9 8,9 4 2 8 5 O 1014,7 50 0,0
19.07.2019 08:00:00 16,0 9,7 3 2 11 6 NO 1014,6 50 0,0
19.07.2019 07:00:00 14,6 9,6 8 4 13 7 N 1014,6 49 0,0
19.07.2019 06:00:00 13,1 9,5 6 4 9 5 N 1014,4 50 0,0
19.07.2019 05:00:00 11,7 9,8 8 4 11 6 NNO 1014,2 50 0,0
19.07.2019 04:00:00 10,3 9,5 5 3 11 6 N 1014,3 30 0,0
19.07.2019 03:00:00 10,5 10,0 6 3 10 6 N 1014,4 21 0,0
19.07.2019 02:00:00 10,3 9,7 7 4 10 6 N 1014,5 16 0,0
19.07.2019 01:00:00 11,0 10,2 5 3 8 4 NNO 1014,3 23 0,0
19.07.2019 00:00:00 12,5 11,1 4 2 17 9 NNO 1014,3 50 0,0
18.07.2019 23:00:00 13,9 11,4 8 4 16 9 ONO 1014,1 50 0,0
18.07.2019 22:00:00 13,9 11,2 6 3 13 7 ONO 1014,1 50 0,0
18.07.2019 21:00:00 14,8 11,4 9 5 13 7 O 1014,0 50 0,0
18.07.2019 20:00:00 15,5 11,9 6 3 14 8 O 1014,0 50 0,0
18.07.2019 19:00:00 15,6 11,6 11 6 16 9 O 1013,8 50 0,0
18.07.2019 18:00:00 15,7 11,3 9 5 18 10 OZO 1014,0 50 0,0
18.07.2019 17:00:00 16,4 11,3 14 8 18 10 O 1013,9 50 0,0
18.07.2019 16:00:00 16,0 11,8 11 6 14 8 OZO 1014,0 50 0,0
18.07.2019 15:00:00 16,9 11,4 12 7 19 10 O 1014,1 47 0,0
18.07.2019 14:00:00 15,9 12,1 16 9 21 12 O 1014,1 45 0,0
18.07.2019 13:00:00 16,7 12,0 16 9 22 12 O 1014,2 42 0,0
18.07.2019 12:00:00 16,0 12,0 15 8 23 12 O 1014,2 42 0,0
18.07.2019 11:00:00 16,3 11,5 14 8 20 11 O 1013,9 46 0,0
18.07.2019 10:00:00 15,7 11,1 11 6 18 10 O 1013,9 50 0,0
18.07.2019 09:00:00 14,8 11,2 6 4 14 8 NNO 1014,1 43 0,0
18.07.2019 08:00:00 13,3 11,0 6 3 14 8 N 1014,1 45 0,0
18.07.2019 07:00:00 13,5 12,6 8 5 15 8 ONO 1013,7 43 0,0
18.07.2019 06:00:00 11,4 11,1 6 4 12 7 N 1013,6 21 0,0
18.07.2019 05:00:00 10,1 9,9 7 4 13 7 NNO 1013,4 16 0,0
18.07.2019 04:00:00 9,1 9,0 6 4 9 5 N 1013,3 8 0,0
18.07.2019 03:00:00 9,2 8,9 6 3 9 5 N 1013,3 0,8 0,0
18.07.2019 02:00:00 10,0 9,8 4 2 8 5 NNO 1013,2 5 0,0
18.07.2019 01:00:00 10,2 9,9 5 3 7 4 NO 1013,0 1,1 0,0
18.07.2019 00:00:00 10,9 10,3 5 3 6 4 NO 1012,8 8 0,0

tt = temperatuur
td = dauwpunt
ff = windsnelheid
fx = windstoten
dd = windrichting
ppp = luchtdruk
vv = zicht
rr = neerslag

Weerstations in de omgeving